Cozumel (Civ/Mil, Mexico

9:03 AM on February 26, 2017 (GMT +0000)
Cozumel International

Weather History for MMCZ - August, 2013

Change the Weather History Date:

Friday, August 9, 2013

  Actual Average Record
Temperature  
Mean Temperature 75 °F -  
Max Temperature 82 °F 90 °F 96 °F (1997)
Min Temperature 68 °F 76 °F 68 °F (2013)
Cooling Degree Days 10    
Growing Degree Days 25 (Base 50)    
Moisture  
Dew Point 71 °F    
Average Humidity 90    
Maximum Humidity 100    
Minimum Humidity 74    
Precipitation  
Precipitation 4.10 in - - ()
Sea Level Pressure  
Sea Level Pressure 29.90 in    
Wind  
Wind Speed 2 mph ()    
Max Wind Speed 18 mph    
Max Gust Speed -    
Visibility 7.0 miles    
Events Rain , Thunderstorm    
Averages and records for this station are not official NWS values.
T = Trace of Precipitation, MM = Missing Value Source: Averaged Metar Reports

Daily Weather History Graph

Daily Weather History Graph

Search for Another Location

Airport or City:

Trip Planner

Search our weather history database for the weather conditions in past years. The results will help you decide how hot, cold, wet, or windy it might be!

Date:

Astronomy

Aug. 09, 2013 Rise Set
Actual Time 6:25 AM CDT 7:20 PM CDT
Civil Twilight 6:02 AM CDT 7:43 PM CDT
Nautical Twilight 5:34 AM CDT 8:11 PM CDT
Astronomical Twilight 5:06 AM CDT 8:39 PM CDT
Moon 8:41 AM CDT (8/9) 9:03 PM CDT (8/9)
Length of Visible Light 13h 41m
Length of Day
12h 55m
Waxing Crescent, 8% of the Moon is Illuminated
Aug 9
Waxing Crescent
Aug 14
First Quarter
Aug 20
Full
Aug 28
Last Quarter
Sep 5
New

Hourly Weather History & Observations

Time (CDT) Temp. Heat Index Dew Point Humidity Pressure Visibility Wind Dir Wind Speed Gust Speed Precip Events Conditions
12:40 AM 71.6 °F - 71.6 °F 100% 29.87 in 7.0 mi Calm Calm - N/A   Mostly Cloudy
1:48 AM 69.8 °F - 69.8 °F 100% 29.88 in 7.0 mi Calm Calm - N/A   Mostly Cloudy
2:44 AM 69.8 °F - 69.8 °F 100% 29.86 in 7.0 mi Calm Calm - N/A   Mostly Cloudy
3:51 AM 69.8 °F - 69.8 °F 100% 29.87 in 7.0 mi Calm Calm - N/A   Scattered Clouds
4:50 AM 69.8 °F - 69.8 °F 100% 29.84 in 7.0 mi Calm Calm - N/A   Scattered Clouds
5:47 AM 69.8 °F - 69.8 °F 100% 29.85 in 7.0 mi Calm Calm - N/A   Scattered Clouds
6:52 AM 68.0 °F - 68.0 °F 100% 29.85 in 7.0 mi Calm Calm - N/A   Scattered Clouds
7:42 AM 69.8 °F - 69.8 °F 100% 29.89 in 8.0 mi Calm Calm - N/A   Mostly Cloudy
8:47 AM 71.6 °F - 71.6 °F 100% 29.90 in 8.0 mi Calm Calm - N/A   Mostly Cloudy
9:46 AM 75.2 °F - 73.4 °F 94% 29.95 in 6.0 mi Calm Calm - N/A   Mostly Cloudy
10:43 AM 82.4 °F 88.2 °F 73.4 °F 74% 29.92 in 7.0 mi SE 3.5 mph - N/A   Mostly Cloudy
11:42 AM 80.6 °F 84.6 °F 71.6 °F 74% 29.93 in 7.0 mi SE 18.4 mph - N/A   Mostly Cloudy
12:49 PM 80.6 °F 85.4 °F 73.4 °F 79% 29.92 in 7.0 mi SE 9.2 mph - N/A   Mostly Cloudy
1:44 PM 80.6 °F 84.6 °F 71.6 °F 74% 29.91 in 7.0 mi SSE 5.8 mph - N/A   Overcast
2:49 PM 78.8 °F - 73.4 °F 83% 29.91 in 7.0 mi SE 9.2 mph - N/A   Overcast
3:40 PM 78.8 °F - 73.4 °F 83% 29.93 in 7.0 mi SSE 4.6 mph - N/A   Overcast
4:44 PM 80.6 °F 84.6 °F 71.6 °F 74% 29.88 in 8.0 mi ESE 8.1 mph - N/A   Overcast
5:41 PM 80.6 °F 84.6 °F 71.6 °F 74% 29.86 in 8.0 mi SE 8.1 mph - N/A   Mostly Cloudy
6:40 PM 78.8 °F - 71.6 °F 78% 29.87 in 8.0 mi East 6.9 mph - N/A   Mostly Cloudy
7:42 PM 75.2 °F - 73.4 °F 94% 29.89 in 7.0 mi Calm Calm - N/A   Mostly Cloudy
8:40 PM 73.4 °F - 71.6 °F 94% 29.92 in 7.0 mi Calm Calm - N/A   Scattered Clouds
9:46 PM 71.6 °F - 71.6 °F 100% 29.99 in 7.0 mi Calm Calm - N/A   Scattered Clouds
10:40 PM 71.6 °F - 69.8 °F 94% 29.98 in 4.0 mi SSW 9.2 mph - N/A Rain , Thunderstorm Thunderstorms and Rain
11:40 PM 69.8 °F - 69.8 °F 100% 29.98 in 7.0 mi SW 3.5 mph - N/A   Mostly Cloudy